Location: M.A.R.S.Observatory
(35.4031°N, 81.5481°W)
Time: 17:05:16
(UTC-04:00)

SL-8 R/B - Visible Passes

Search period start: 04 September 2015 00:00
Search period end: 14 September 2015 00:00
Orbit: 657 x 669 km, 48.4° (Epoch: 03 September)

Date Brightness Start Highest point End Pass type
(mag) Time Alt. Az. Time Alt. Az. Time Alt. Az.
04 Sep 6.2 03:42:12 17° NNE 03:42:12 17° NNE 03:44:52 10° NE visible
04 Sep 5.1 05:20:48 10° NW 05:25:16 36° NNE 05:29:42 10° E visible
05 Sep 5.7 04:12:43 22° N 04:13:37 23° NNE 04:17:29 10° ENE visible
05 Sep 3.9 05:51:59 10° NW 05:56:49 75° NE 06:01:37 10° ESE visible
06 Sep 5.0 04:43:28 26° NNW 04:45:27 38° NNE 04:49:57 10° E visible
06 Sep 4.1 06:23:29 10° WNW 06:28:05 44° SW 06:32:38 10° SSE visible
07 Sep 6.4 03:36:27 16° ENE 03:36:27 16° ENE 03:37:45 10° ENE visible
07 Sep 3.7 05:14:32 29° NW 05:16:58 80° NE 05:21:47 10° SE visible
07 Sep 4.8 21:08:14 10° S 21:11:30 26° SSE 21:11:30 26° SSE visible
08 Sep 5.7 04:07:50 25° E 04:07:50 25° E 04:10:10 10° E visible
08 Sep 4.1 05:45:56 25° W 05:48:12 41° SW 05:52:42 10° SSE visible
08 Sep 3.7 21:38:39 10° SW 21:43:02 68° S 21:43:02 68° S visible
09 Sep 5.1 04:39:29 30° SE 04:39:29 30° SE 04:41:57 10° SE visible
09 Sep 5.3 06:17:36 13° WSW 06:19:15 15° SW 06:21:58 10° SSW visible
09 Sep 4.5 20:28:15 10° SSW 20:32:25 30° SE 20:36:10 12° ENE visible
09 Sep 4.6 22:10:10 10° WSW 22:14:14 47° WNW 22:14:14 47° WNW visible
10 Sep 5.5 05:11:19 18° SSE 05:11:19 18° SSE 05:12:46 10° SSE visible
10 Sep 3.6 20:58:47 10° SW 21:03:35 79° SE 21:07:04 19° ENE visible
10 Sep 5.9 22:42:25 10° W 22:45:07 24° NW 22:45:07 24° NW visible
11 Sep 4.6 21:30:22 10° WSW 21:35:02 47° NNW 21:37:40 23° NNE visible
11 Sep 6.7 23:15:02 10° WNW 23:15:43 12° NW 23:15:43 12° NW visible
12 Sep 3.7 20:18:55 10° SW 20:23:44 85° SE 20:28:35 10° NE visible
12 Sep 5.5 22:02:40 10° WNW 22:06:45 26° NNW 22:08:03 23° N visible
13 Sep 4.8 20:50:35 10° WSW 20:55:12 44° NNW 20:59:49 10° NE visible
13 Sep 6.1 22:35:18 10° NW 22:38:14 18° NNW 22:38:14 18° NNW visible
